Total_Precipitation_Accumulation
0.32 0.45 0.88 0.96 0.96 0.97 0.98 0.90 0.89 0.93 1.03 1.15 1.11 1.02 1.02 1.04 1.05 1.00 1.09 1.21 1.27 1.31 1.38 1.45 1.42 1.39 1.36 1.34 1.13 0.88 0.72 0.67 0.66 0.63 0.63 0.68 0.79 0.87 0.78 0.77 0.80 0.92 1.12
0.33 0.50 0.87 0.94 1.01 1.07 1.09 0.98 0.90 0.90 1.00 1.13 1.23 1.17 1.22 1.26 1.29 1.34 1.26 1.22 1.25 1.28 1.33 1.31 1.17 1.05 0.96 0.90 0.78 0.69 0.61 0.48 0.42 0.36 0.31 0.37 0.59 0.76 0.74 0.67 0.75 1.05 1.17
0.33 0.50 0.79 1.00 1.09 1.09 1.10 1.03 0.91 0.90 0.98 1.10 1.24 1.32 1.36 1.37 1.43 1.52 1.43 1.33 1.41 1.33 1.28 1.17 0.93 0.82 0.76 0.67 0.61 0.58 0.53 0.39 0.32 0.27 0.27 0.35 0.52 0.79 0.77 0.76 0.94 1.14 1.19
0.37 0.52 0.70 1.06 1.15 1.08 1.06 1.07 0.95 0.94 1.00 1.11 1.23 1.39 1.44 1.48 1.59 1.69 1.52 1.42 1.43 1.24 1.08 0.96 0.81 0.71 0.64 0.57 0.51 0.50 0.46 0.39 0.31 0.26 0.37 0.44 0.57 0.95 0.99 1.02 1.14 1.12 1.10
0.47 0.60 0.86 1.18 1.26 1.19 1.14 1.13 1.09 1.02 1.04 1.15 1.28 1.44 1.56 1.64 1.70 1.62 1.48 1.32 1.25 1.10 0.95 0.83 0.67 0.60 0.54 0.50 0.49 0.46 0.43 0.34 0.26 0.26 0.39 0.51 0.74 1.20 1.18 1.17 1.20 1.08 1.03
0.59 0.71 0.98 1.24 1.41 1.42 1.33 1.24 1.19 1.13 1.11 1.13 1.29 1.41 1.53 1.66 1.59 1.49 1.39 1.20 1.08 1.00 0.92 0.78 0.66 0.56 0.51 0.45 0.47 0.47 0.41 0.31 0.25 0.28 0.41 0.49 0.70 1.23 1.24 1.22 1.19 1.15 1.12
0.73 0.86 1.04 1.27 1.42 1.48 1.49 1.35 1.24 1.23 1.22 1.20 1.33 1.42 1.53 1.64 1.57 1.46 1.30 1.13 1.05 1.01 0.97 0.85 0.74 0.61 0.52 0.47 0.46 0.43 0.38 0.28 0.24 0.29 0.42 0.51 0.74 1.24 1.40 1.38 1.31 1.21 1.19
0.96 1.13 1.23 1.45 1.45 1.48 1.46 1.42 1.32 1.30 1.31 1.32 1.43 1.45 1.50 1.60 1.53 1.48 1.32 1.21 1.11 1.05 1.01 0.88 0.77 0.69 0.58 0.50 0.46 0.40 0.33 0.25 0.23 0.27 0.39 0.52 0.78 1.20 1.44 1.33 1.29 1.19 1.16
1.36 1.53 1.51 1.55 1.43 1.47 1.46 1.39 1.36 1.32 1.35 1.40 1.44 1.38 1.38 1.38 1.37 1.35 1.23 1.14 1.12 1.06 1.01 0.94 0.83 0.73 0.62 0.51 0.45 0.38 0.29 0.21 0.20 0.25 0.31 0.49 0.73 1.11 1.36 1.37 1.30 1.25 1.24
1.76 1.95 1.92 1.78 1.62 1.52 1.51 1.44 1.41 1.38 1.35 1.35 1.28 1.10 1.06 1.15 1.18 1.15 1.00 0.98 0.98 0.97 1.00 0.97 0.92 0.80 0.66 0.53 0.42 0.34 0.27 0.22 0.20 0.23 0.33 0.49 0.79 1.15 1.39 1.44 1.40 1.31 1.29
2.13 2.24 2.31 2.17 1.93 1.76 1.63 1.48 1.54 1.53 1.43 1.36 1.20 1.01 0.98 1.05 1.07 0.97 0.83 0.81 0.86 0.88 0.93 0.96 0.90 0.80 0.66 0.53 0.44 0.36 0.31 0.26 0.23 0.25 0.33 0.58 0.99 1.27 1.42 1.41 1.35 1.32 1.32
2.19 2.31 2.48 2.39 2.26 2.10 1.85 1.63 1.68 1.68 1.53 1.39 1.16 1.10 1.09 1.09 1.12 0.96 0.86 0.80 0.85 0.82 0.82 0.95 0.94 0.82 0.71 0.54 0.47 0.42 0.37 0.30 0.31 0.30 0.38 0.68 1.12 1.33 1.39 1.30 1.27 1.24 1.24
2.29 2.49 2.60 2.63 2.43 2.36 2.22 1.90 1.75 1.77 1.73 1.62 1.40 1.28 1.24 1.23 1.23 1.20 1.02 0.96 0.93 0.80 0.74 0.75 0.84 0.72 0.62 0.57 0.51 0.45 0.41 0.38 0.36 0.38 0.43 0.62 0.97 1.25 1.38 1.27 1.21 1.21 1.22
2.45 2.54 2.65 2.83 2.71 2.45 2.32 2.18 2.01 1.95 1.90 1.78 1.62 1.57 1.53 1.40 1.23 1.20 1.13 0.99 1.02 0.93 0.83 0.77 0.73 0.70 0.69 0.64 0.58 0.52 0.50 0.49 0.39 0.40 0.44 0.56 0.80 1.07 1.29 1.35 1.31 1.32 1.32
2.48 2.63 2.71 2.80 2.87 2.70 2.52 2.34 2.17 2.06 2.00 2.05 2.01 1.92 1.83 1.69 1.44 1.31 1.25 1.24 1.20 1.14 1.04 0.93 0.87 0.87 0.83 0.81 0.71 0.59 0.57 0.57 0.51 0.45 0.45 0.50 0.61 0.88 1.15 1.35 1.47 1.52 1.57
2.38 2.59 2.74 2.83 2.95 2.96 2.70 2.56 2.39 2.17 2.03 2.08 2.12 2.07 2.13 2.06 1.92 1.75 1.64 1.52 1.45 1.38 1.29 1.17 1.08 1.08 1.04 0.97 0.88 0.72 0.64 0.64 0.65 0.62 0.58 0.55 0.55 0.68 1.01 1.30 1.52 1.67 1.79
2.37 2.60 2.66 2.77 2.99 3.05 2.97 2.83 2.63 2.47 2.21 2.11 2.04 2.04 2.15 2.14 2.07 2.02 1.94 1.88 1.80 1.72 1.60 1.49 1.40 1.33 1.26 1.17 1.05 0.93 0.83 0.75 0.74 0.77 0.75 0.68 0.65 0.66 0.88 1.23 1.46 1.67 1.82
2.41 2.62 2.71 2.77 2.93 2.98 3.03 3.12 3.01 2.88 2.64 2.36 2.21 2.17 2.18 2.21 2.15 2.07 1.96 1.84 1.84 1.96 1.97 1.82 1.66 1.54 1.40 1.32 1.23 1.07 0.92 0.85 0.80 0.81 0.85 0.86 0.82 0.74 0.78 1.02 1.28 1.51 1.67
2.32 2.56 2.75 2.79 2.99 3.09 3.11 3.18 3.18 3.08 3.01 2.82 2.48 2.24 2.22 2.30 2.31 2.24 2.10 2.02 2.00 1.90 1.94 1.96 1.84 1.64 1.52 1.45 1.39 1.28 1.09 0.95 0.88 0.85 0.84 0.85 0.90 0.84 0.78 0.86 0.99 1.16 1.35
2.24 2.46 2.70 2.76 2.95 3.28 3.41 3.39 3.37 3.14 2.93 2.95 2.80 2.53 2.33 2.37 2.46 2.37 2.19 2.17 2.24 2.12 1.98 1.88 1.91 1.79 1.60 1.56 1.55 1.47 1.32 1.18 1.09 0.99 0.93 0.92 0.92 0.91 0.90 0.82 0.82 0.88 1.04
2.20 2.42 2.60 2.70 2.79 3.08 3.31 3.32 3.24 3.13 2.88 2.76 2.76 2.69 2.58 2.50 2.59 2.60 2.40 2.26 2.25 2.15 2.03 1.97 1.96 2.01 1.95 1.83 1.88 1.81 1.64 1.45 1.32 1.19 1.11 1.08 1.03 1.01 1.02 1.00 0.94 0.86 0.88
1.95 2.22 2.47 2.60 2.69 2.73 2.83 3.08 3.25 3.37 3.23 2.93 2.77 2.72 2.63 2.52 2.52 2.55 2.59 2.52 2.39 2.28 2.19 2.17 2.18 2.21 2.23 2.20 2.20 2.20 2.08 1.91 1.55 1.28 1.20 1.17 1.12 1.11 1.09 1.06 1.02 0.94 0.86
1.69 1.98 2.28 2.45 2.58 2.62 2.69 3.00 3.26 3.44 3.34 3.04 2.68 2.54 2.58 2.56 2.55 2.46 2.45 2.57 2.55 2.44 2.29 2.22 2.19 2.22 2.27 2.26 2.25 2.39 2.21 1.89 1.56 1.37 1.20 1.12 1.13 1.16 1.14 1.16 1.18 1.13 1.03
1.48 1.71 1.91 2.14 2.30 2.51 2.63 2.76 2.85 2.99 3.03 2.80 2.66 2.56 2.62 2.65 2.63 2.56 2.49 2.50 2.52 2.45 2.30 2.25 2.18 2.15 2.22 2.25 2.23 2.16 2.05 1.75 1.59 1.50 1.34 1.19 1.16 1.18 1.23 1.23 1.25 1.28 1.27
1.33 1.60 1.78 1.88 2.08 2.30 2.48 2.55 2.74 2.78 2.81 2.89 2.88 2.79 2.71 2.69 2.62 2.56 2.51 2.49 2.42 2.34 2.29 2.34 2.27 2.23 2.24 2.23 2.16 2.09 2.09 1.88 1.65 1.59 1.47 1.32 1.29 1.24 1.29 1.37 1.33 1.32 1.32
1.27 1.45 1.68 1.71 1.82 1.99 2.26 2.50 2.57 2.57 2.63 2.68 2.70 2.68 2.67 2.68 2.62 2.52 2.41 2.37 2.33 2.31 2.31 2.35 2.39 2.32 2.28 2.30 2.23 2.11 2.12 2.11 1.90 1.80 1.70 1.48 1.45 1.38 1.29 1.34 1.39 1.36 1.33